www.pogodaiklimat.ru

Погода и климат >> Архив погоды >> Южная Африка >> Clanwilliam


ПОГОДА в Clanwilliam

  • Прогноз погоды в Clanwilliam
  • Монитор погоды в Clanwilliam
  • Климат города

АРХИВ ПОГОДЫ в Clanwilliam

Время (UTC), дата Ветер
(напр.,м/с)
 
Видим.   Явления Облачность Т
(С)
Тd
(С)
f
(%)
Тe
(С)
Тes
(С)
Комфортность P
(гПа)
Po
(гПа)
Тmin
(С)
Tmax
(С)
R
(мм)
R24
(мм)
S
(см)
03 9.07 З 3 н/о н/о +20.1 +2.6 31 +21 +21 комфорт 1022.5 1010.7 +14.2 +24.4
06 9.07 Ю 2 н/о н/о +12.2 +6.0 66 +11 +11 1023.7 1011.6 +12.2
09 9.07 В 1 н/о н/о +19.4 +7.9 47 +21 +21 комфорт 1023.8 1012.0 +12.1 +19.4
12 9.07 С 2 н/о н/о +25.8 +6.1 28 +25 +25 комфорт 1021.4 1009.9 +12.1 +25.8
15 9.07 штиль 0 н/о н/о +24.9 +6.3 30 +25 +25 комфорт 1021.1 1009.5 +24.9 +26.1
18 9.07 Ю 3 н/о н/о +17.7 +8.1 53 +18 +18 1022.1 1010.2 +17.7 +26.1
21 9.07 штиль 0 н/о н/о +12.3 +8.0 75 +12 +12 1023.2 1011.1 +12.3 +26.1
00 10.07 ЮВ 1 н/о н/о +9.5 +7.1 85 +9 +9 1023.5 1011.3 +9.3 +26.1
03 10.07 штиль 0 н/о н/о +8.2 +5.8 85 +7 +7 1023.7 1011.4 +8.2 +26.1
06 10.07 Ю 1 н/о н/о +7.9 +6.3 90 +7 +7 1025.5 1013.2 +7.3
09 10.07 штиль 0 н/о н/о +14.5 +8.7 68 +14 +14 1025.6 1013.6 +7.3 +14.6
15 10.07 СВ 4 н/о н/о +24.1 +6.1 31 +24 +24 комфорт 1020.9 1009.3 +24.1 +25.5
21 10.07 ЮВ 2 н/о н/о +13.6 +7.2 65 +13 +13 1021.9 1009.9 +13.6 +25.5
03 11.07 Ю 2 н/о н/о +10.1 +6.6 79 +9 +9 1020.3 1008.1 +9.6 +25.5
06 11.07 СЗ 3 н/о н/о +19.3 +6.8 44 +20 +20 1019.0 1007.2 +8.9
09 11.07 С 4 н/о н/о +23.8 +7.2 34 +24 +24 комфорт 1019.2 1007.6 +8.9 +23.8
15 11.07 З 4 н/о н/о +25.2 +4.0 25 +24 +24 комфорт 1014.3 1002.8 +25.2 +27.8
21 11.07 штиль 0 н/о н/о +12.7 +6.3 65 +12 +12 1016.9 1004.9 +12.7 +27.8
00 12.07 штиль 0 н/о н/о +10.7 +6.0 73 +10 +10 1016.5 1004.4 +10.7 +27.8
03 12.07 С 1 н/о н/о +8.5 +5.7 83 +8 +8 1016.3 1004.1 +8.5 +27.8
06 12.07 штиль 0 н/о н/о +8.5 +5.6 82 +8 +8 1018.7 1006.5 +8.1
09 12.07 СВ 2 н/о н/о +15.5 +9.0 65 +16 +16 1018.9 1007.0 +8.1 +15.5
15 12.07 СЗ 1 н/о н/о +14.4 +7.9 65 +15 +15 1018.7 1006.7 +13.9 +17.2
18 12.07 З 1 н/о н/о +13.4 +7.8 69 +14 +14 1020.1 1008.1 +13.4 +17.2
21 12.07 Ю 1 н/о н/о +13.0 +7.7 70 +13 +13 1020.8 1008.7 +13.0 +17.2
03 13.07 штиль 0 н/о н/о +9.5 +5.3 75 +9 +9 1021.7 1009.5 +9.5 +17.2
06 13.07 штиль 0 н/о н/о +6.2 +4.2 87 +5 +5 1023.8 1011.4 +6.2
09 13.07 С 1 н/о н/о +12.7 +6.7 67 +13 +13 1025.0 1012.9 +6.1 +12.7
12 13.07 ЮВ 2 н/о н/о +12.1 +8.0 76 +12 +12 1024.0 1011.9 +6.1 +14.1 1
15 13.07 З 4 н/о н/о +13.9 +5.8 58 +13 +13 1024.3 1012.2 +12.2 +14.7
18 13.07 штиль 0 н/о н/о +10.6 +6.9 78 +10 +10 1026.6 1014.4 +10.6 +14.7 1
21 13.07 штиль 0 н/о н/о +9.7 +7.9 89 +9 +9 1028.1 1015.8 +9.6 +14.7
03 14.07 штиль 0 н/о н/о +7.9 +7.0 94 +7 +7 1029.4 1017.0 +7.4 +14.7
06 14.07 Ю 1 н/о н/о +7.7 +6.8 94 +7 +7 1031.6 1019.2 +7.4 2
09 14.07 В 1 н/о н/о +8.7 +7.7 93 +8 +8 1033.1 1020.7 +7.4 +8.7
12 14.07 штиль 0 н/о н/о +15.0 +7.3 60 +15 +15 1030.9 1018.8 +7.4 +15.0
15 14.07 ЮЗ 1 н/о н/о +15.8 +3.9 45 +17 +17 1030.6 1018.5 +15.3 +16.1
18 14.07 ЮВ 2 н/о н/о +12.7 +6.3 65 +12 +12 1031.9 1019.7 +12.1 +16.1
21 14.07 З 1 н/о н/о +8.1 +5.2 82 +7 +7 1033.2 1020.8 +8.1 +16.1
00 15.07 З 1 н/о н/о +8.1 +5.2 82 +7 +7 1033.2 1020.8 +8.1 +16.1
03 15.07 З 2 н/о н/о +4.9 +2.2 83 +3 +3 1033.3 1020.7 +4.9 +16.1
06 15.07 ЮВ 1 н/о н/о +3.4 +1.6 88 +2 +2 1034.4 1021.8 +3.4
09 15.07 СЗ 1 н/о н/о +13.3 +2.8 49 +14 +14 1034.2 1022.0 +3.4 +13.3
12 15.07 ЮВ 2 н/о н/о +18.9 -0.8 26 +20 +20 1030.3 1018.4 +3.4 +18.9
15 15.07 В 3 н/о н/о +19.3 -0.5 26 +20 +20 1029.1 1017.2 +19.1 +19.7
18 15.07 З 2 н/о н/о +12.0 +2.2 51 +12 +12 1029.3 1017.1 +12.0 +19.7
21 15.07 З 2 н/о н/о +9.5 +2.3 61 +9 +9 1029.2 1016.9 +8.7 +19.7
00 16.07 Ю 3 н/о н/о +11.2 +1.2 50 +10 +10 1028.1 1015.9 +8.7 +19.7

 

Местоположение метеостанции Clanwilliam (Южная Африка): широта -32.18 долгота 18.89 высота над уровнем моря 100 м.

В архиве по умолчанию представлена погода в Clanwilliam за последнюю неделю. Архивные данные за месяц целиком и за предыдущие месяцы, начиная с января 2011 года, Вы можете получить, выбрав интересующий диапазон дат из раскрывающегося списка и нажав кнопку "Ввод!".


*Определитесь, кто Вы:
робот инопланетянин человек

Внимание! Время в таблицах - всемирное. Для получения местного времени необходимо прибавить поправку, которая в Clanwilliam равна 2 ч.

Смотрите также архив погоды в соседних городах и на ближайших метеорологических станциях:

Погода в Lamberts Bay (Южная Африка) (55 км)
Погода в Vredendal (Южная Африка) (69 км)
Погода в Nieuwoudtville (Южная Африка) (95 км)
Погода в Excelsior Ceres (Южная Африка) (100 км)
Погода в Langebaanweg (Южная Африка) (110 км)
Погода в Calvinia (Южная Африка) (115 км)
Погода в Cape Columbine (Южная Африка) (121 км)
Погода в Langebaan (Южная Африка) (129 км)
Погода в Geelbek (Южная Африка) (134 км)
Погода в Malmesbury (Южная Африка) (143 км)

Пояснения к столбцам:

Ветер - указаны скорость ветра в м/с - средняя за 10 мин, порывы в срок и между сроками (в фигурных скобках) и направление, откуда дует ветер: С - северный, СВ - северо-восточный, В - восточный, ЮВ - юго-восточный, Ю - южный, ЮЗ - юго-западный, З - западный, СЗ - северо-западный.
Видимость - горизонтальная дальность видимости в метрах или километрах. При видимости от 1 до 10 км при отсутствии осадков обычно наблюдается дымка, при ухудшении видимости до 1 км и менее - туман. В сухую погоду видимость может ухудшаться дымом, пылью или мглою.
Явления - указаны атмосферные явления, наблюдавшиеся в срок или в последний час перед сроком; фигурными скобками обозначены явления, наблюдавшиеся между сроками (за 1-3 часа до срока); квадратными скобками обозначены град или гололедные отложения с указанием их диаметра в мм.
Облачность - указаны через наклонную черту общая и нижняя облачность в баллах и высота нижней границы облаков в метрах; квадратными скобками обозначены формы облаков: Ci - перистые, Cs - перисто-слоистые, Cc - перисто-кучевые, Ac - высококучевые, As - высокослоистые, Sc - слоисто-кучевые, Ns - слоисто-дождевые, Cu - кучевые, Cb - кучево-дождевые. Подробнее классификацию облаков см. в Атласе облаков (PDF).
T - Температура воздуха - температура, измеренная на высоте 2 м над землей.
Td - Температура точки росы - температура, при понижении до которой содержащийся в воздухе водяной пар достигнет насыщения.
f - Относительная влажность воздуха - влажноcть воздуха, измеренная на высоте 2 м над землей.
Te - Эффективная температура - температура, которую ощущает одетый по сезону человек в тени. Характеристика душности погоды. При расчете учитывается влияние влажности воздуха и скорости ветра на теплоощущения человека.
Tes - Эффективная температура на солнце - температура, которую ощущает человек, с поправкой на солнечный нагрев. Характеристика знойности погоды. Зависит от высоты солнца над горизонтом, облачности и скорости ветра. Ночью, в пасмурную погоду, а также при ветре 12 м/с и более поправка равна нулю.
P - Атмосферное давление - приведенное к уровню моря атмосферное давление.
Po - Атмосферное давление - измеренное на уровне метеостанции атмосферное давление.
Tmin - Минимальная температура - минимум температуры воздуха на высоте 2 м над землей.
Tmax - Максимальная температура - максимум температуры воздуха на высоте 2 м над землей.
R - Количество осадков - Количество выпавших осадков за период времени, мм. При наведении курсора мыши на число - период времени, за который выпало указанное количество осадков.
R24 - Количество осадков - Количество выпавших осадков за 24 часа, мм.
S - Снежный покров - Высота снежного покрова, см. При наведении курсора мыши на число - состояние снежного покрова и степень покрытия местности в баллах.